Temp
10 10 10 10 10 10 10 10 11 11 11 11 11 11 12 12 12 13 12 13 13 13 12 12 11 9 9 9 10 9 10 10 12 13 13 13 12 12 11 11 11 11 9 10 9
9 9 9 10 10 10 10 10 10 11 11 11 11 11 11 11 12 13 13 12 12 13 13 12 10 9 9 10 9 10 10 11 12 12 13 12 12 12 12 12 10 10 9 9 9
9 9 9 9 9 9 10 10 10 10 10 10 11 11 11 11 11 13 13 12 12 12 12 9 9 10 10 10 9 10 10 10 11 12 12 12 11 12 12 12 11 10 9 9 9
8 8 9 9 9 9 9 9 10 10 10 10 10 11 10 11 10 11 12 12 12 12 12 9 10 10 10 11 10 10 10 10 11 12 13 13 13 13 13 12 11 9 10 9 9
8 8 8 8 9 9 9 9 9 9 9 10 10 10 10 10 10 11 12 12 12 12 12 9 10 11 10 11 11 10 10 11 11 12 13 13 13 11 12 11 11 9 9 9 9
8 8 8 8 8 8 9 9 9 9 9 9 9 9 10 10 8 11 11 12 12 12 12 9 10 11 11 11 11 10 10 11 11 12 12 13 12 12 11 11 10 9 9 9 9
7 7 7 7 8 8 8 8 8 9 9 9 9 9 9 8 9 10 11 11 11 12 12 10 11 11 12 10 10 11 10 10 11 10 10 10 12 12 11 11 10 10 10 10 9
7 7 7 7 7 8 8 8 8 8 9 9 9 9 9 9 9 10 11 11 11 11 9 10 10 11 11 11 11 11 10 9 10 10 10 11 11 11 11 11 10 10 10 10 10
7 7 7 7 7 7 7 7 8 8 8 8 8 8 7 9 10 10 9 9 9 9 9 10 10 11 11 11 11 10 9 10 10 10 11 11 10 11 11 11 10 10 10 10 10
7 7 7 7 7 7 7 6 7 7 8 8 8 8 8 8 8 8 10 9 9 9 9 9 10 10 12 12 12 11 10 9 9 10 11 9 10 11 11 11 11 11 11 10 10
7 7 7 7 7 7 7 7 7 6 7 7 8 8 8 8 7 8 8 9 9 9 10 10 11 12 13 14 12 11 10 10 9 9 9 9 9 11 11 11 11 11 11 10 10
7 7 7 7 7 7 7 6 6 7 7 7 7 8 8 8 8 8 8 9 9 10 11 12 12 13 14 13 11 11 10 8 9 9 8 8 9 9 10 10 10 10 10 10 9
7 7 7 7 7 7 7 8 6 6 7 8 8 8 8 8 9 9 9 10 10 10 12 13 14 14 14 15 13 10 11 9 9 8 8 8 8 8 9 9 10 10 9 9 10
7 7 8 7 7 7 6 6 6 6 7 9 9 9 8 8 9 9 9 10 11 12 12 13 14 15 15 15 14 11 10 11 10 10 8 9 9 8 8 9 9 10 10 10 10
7 8 8 7 7 6 6 6 7 6 8 10 10 8 9 9 10 10 9 10 11 12 13 13 14 14 15 14 15 11 11 11 11 10 9 8 9 9 9 9 10 9 10 10 9
7 8 7 7 7 7 6 6 6 8 7 10 10 9 9 10 11 10 9 10 11 12 12 13 14 14 14 14 15 12 11 10 10 10 8 11 10 10 9 13 12 11 11 10 9
7 7 7 7 5 5 6 6 8 9 9 10 11 10 10 11 11 10 10 10 11 12 13 13 13 13 14 14 14 13 12 13 11 9 12 14 11 13 15 13 15 14 12 11 10
7 7 7 7 8 7 6 7 9 10 11 10 10 11 11 11 11 11 11 11 11 12 14 14 14 13 14 14 14 13 15 16 14 14 10 12 14 15 15 14 14 13 11 11 10
6 6 7 7 8 7 6 8 9 10 10 11 10 11 10 11 11 11 12 12 12 12 13 13 14 14 14 14 14 14 14 15 13 13 14 12 12 13 13 12 13 13 12 11 11
6 6 7 7 7 6 7 9 9 9 10 10 10 10 9 10 11 11 12 12 12 12 12 12 13 15 14 14 14 14 15 15 16 14 14 11 11 10 13 13 12 13 13 13 12
7 7 8 7 6 7 8 9 9 9 9 9 9 10 10 10 10 11 10 10 10 11 11 12 12 13 14 13 14 14 14 15 16 17 16 11 10 11 13 14 13 13 12 12 13
7 7 8 7 8 9 10 9 9 9 9 9 9 10 10 10 11 10 10 10 9 10 11 11 12 12 13 14 14 14 15 15 16 16 16 17 13 12 14 13 13 14 13 12 12
7 8 8 7 9 10 9 9 9 9 9 9 10 9 9 9 10 9 10 9 9 9 10 10 12 12 13 13 14 14 14 15 15 16 16 17 15 13 14 14 13 13 13 12 11
7 9 9 9 9 10 9 9 9 8 8 8 8 8 9 10 10 9 9 10 9 9 9 9 11 12 12 9 11 13 14 14 15 15 16 17 14 13 13 13 14 13 12 12 12
7 8 9 9 9 9 9 9 9 9 8 8 8 8 9 9 9 9 9 10 9 9 9 9 10 11 9 10 11 11 12 13 14 15 16 16 15 14 13 13 12 13 12 12 13
6 7 8 9 8 8 9 8 8 9 8 8 8 8 8 8 9 8 8 9 8 9 9 9 10 10 10 10 11 12 12 12 14 14 15 15 15 13 12 12 11 10 11 13 13
6 6 7 8 8 9 9 8 8 7 7 7 7 7 8 8 8 7 8 8 9 8 8 8 10 10 10 11 11 11 12 12 13 13 14 14 12 12 12 11 10 11 12 12 12
Height
3139 3138 3136 3135 3134 3133 3133 3132 3132 3132 3132 3133 3135 3137 3138 3139 3141 3142 3143 3146 3147 3149 3151 3152 3154 3157 3162 3162 3161 3160 3160 3153 3160 3164 3168 3173 3173 3177 3179 3181 3184 3187 3187 3189 3195
3139 3137 3136 3135 3134 3132 3131 3131 3130 3130 3131 3131 3132 3134 3136 3137 3139 3140 3143 3145 3146 3148 3150 3152 3154 3160 3162 3162 3162 3160 3154 3158 3161 3165 3169 3172 3174 3177 3182 3186 3184 3187 3188 3192 3197
3138 3137 3136 3134 3133 3132 3131 3130 3129 3129 3129 3129 3130 3132 3134 3136 3138 3137 3141 3144 3145 3147 3149 3153 3159 3162 3163 3164 3162 3161 3142 3152 3158 3163 3168 3171 3173 3180 3181 3184 3186 3188 3190 3195 3198
3137 3136 3135 3134 3133 3131 3130 3129 3128 3127 3127 3128 3129 3130 3132 3135 3141 3134 3139 3142 3144 3146 3148 3151 3159 3162 3163 3163 3164 3164 3151 3157 3152 3163 3168 3175 3177 3182 3183 3186 3186 3189 3191 3196 3199
3136 3135 3134 3133 3132 3130 3129 3128 3127 3126 3126 3126 3127 3128 3131 3134 3136 3134 3136 3140 3142 3145 3148 3151 3158 3161 3161 3163 3163 3159 3161 3159 3161 3164 3171 3175 3178 3179 3183 3185 3185 3189 3193 3196 3201
3135 3134 3133 3132 3131 3129 3128 3127 3126 3125 3125 3124 3125 3126 3129 3133 3131 3132 3135 3138 3141 3144 3147 3152 3157 3162 3161 3161 3161 3160 3162 3163 3165 3166 3168 3174 3176 3181 3183 3186 3187 3192 3195 3199 3202
3135 3134 3133 3131 3129 3128 3127 3126 3126 3125 3124 3124 3124 3124 3127 3130 3129 3132 3135 3137 3140 3143 3146 3152 3158 3162 3163 3160 3159 3160 3159 3163 3163 3167 3169 3172 3176 3180 3184 3188 3190 3194 3197 3201 3204
3134 3133 3131 3130 3128 3127 3126 3126 3125 3125 3124 3123 3122 3123 3125 3126 3126 3131 3134 3136 3139 3142 3147 3154 3157 3159 3160 3160 3162 3160 3161 3162 3163 3164 3154 3177 3175 3179 3184 3188 3191 3196 3199 3202 3205
3133 3132 3130 3129 3127 3126 3125 3125 3125 3125 3124 3124 3124 3123 3127 3125 3126 3131 3134 3137 3140 3142 3147 3154 3155 3156 3159 3159 3161 3160 3160 3163 3163 3163 3168 3173 3174 3179 3186 3189 3192 3196 3199 3202 3205
3132 3131 3130 3128 3127 3126 3126 3126 3126 3126 3126 3125 3126 3127 3126 3127 3127 3130 3133 3138 3142 3145 3148 3149 3152 3154 3156 3156 3157 3158 3157 3156 3161 3163 3166 3171 3174 3180 3186 3190 3193 3196 3199 3203 3204
3131 3130 3129 3128 3127 3126 3127 3128 3129 3130 3127 3126 3130 3129 3130 3130 3129 3131 3134 3138 3141 3145 3147 3148 3151 3151 3153 3155 3155 3157 3159 3159 3156 3159 3166 3172 3174 3178 3185 3190 3193 3196 3198 3202 3204
3130 3129 3128 3128 3127 3126 3126 3127 3129 3130 3128 3127 3129 3129 3130 3129 3130 3133 3134 3139 3142 3145 3147 3151 3148 3150 3152 3153 3154 3153 3157 3157 3159 3165 3169 3168 3173 3173 3178 3181 3189 3193 3196 3199 3200
3130 3129 3128 3127 3127 3127 3127 3127 3128 3128 3130 3131 3130 3129 3130 3131 3132 3133 3135 3139 3141 3144 3146 3146 3147 3149 3150 3150 3149 3154 3153 3157 3162 3167 3169 3170 3170 3173 3176 3180 3181 3187 3189 3193 3198
3129 3128 3128 3128 3129 3127 3129 3131 3131 3131 3131 3132 3131 3131 3131 3130 3132 3134 3135 3140 3142 3143 3145 3146 3146 3147 3149 3149 3152 3149 3155 3156 3156 3166 3166 3168 3172 3170 3172 3176 3178 3182 3185 3191 3195
3130 3129 3129 3127 3128 3128 3134 3132 3131 3133 3136 3134 3132 3130 3131 3131 3132 3133 3135 3139 3140 3142 3145 3144 3145 3145 3147 3149 3150 3153 3157 3157 3161 3165 3168 3168 3170 3168 3166 3171 3172 3176 3181 3187 3188
3131 3130 3129 3129 3128 3130 3130 3132 3134 3138 3136 3133 3131 3131 3132 3132 3132 3133 3136 3137 3140 3140 3141 3141 3143 3145 3146 3148 3150 3149 3158 3161 3163 3165 3168 3162 3163 3165 3162 3159 3160 3169 3177 3183 3186
3132 3131 3129 3128 3131 3133 3132 3135 3139 3135 3133 3133 3130 3131 3130 3131 3132 3134 3135 3137 3138 3139 3139 3140 3141 3142 3145 3147 3149 3151 3153 3153 3159 3165 3152 3149 3160 3150 3150 3154 3157 3159 3169 3179 3186
3134 3132 3131 3130 3129 3131 3133 3138 3137 3130 3131 3132 3132 3131 3131 3132 3132 3133 3135 3136 3137 3136 3135 3137 3139 3140 3143 3144 3146 3150 3151 3148 3152 3150 3156 3152 3149 3147 3148 3150 3155 3160 3166 3173 3178
3137 3135 3135 3134 3134 3135 3137 3139 3136 3132 3133 3132 3132 3130 3133 3132 3134 3132 3132 3132 3134 3135 3135 3134 3132 3135 3139 3142 3145 3147 3148 3149 3154 3154 3154 3156 3154 3148 3148 3151 3153 3156 3162 3166 3173
3138 3136 3144 3139 3137 3137 3140 3138 3137 3136 3135 3134 3133 3133 3136 3132 3133 3132 3132 3131 3130 3133 3136 3137 3134 3132 3136 3140 3141 3142 3147 3147 3143 3147 3152 3152 3152 3155 3155 3152 3153 3155 3159 3163 3169
3140 3141 3144 3141 3140 3140 3140 3139 3138 3138 3137 3137 3137 3134 3135 3135 3134 3133 3137 3135 3136 3135 3134 3136 3137 3134 3136 3138 3140 3142 3143 3144 3141 3140 3141 3146 3153 3155 3154 3155 3157 3155 3157 3162 3166
3142 3143 3143 3141 3142 3140 3140 3141 3141 3140 3139 3138 3137 3136 3134 3134 3135 3137 3136 3136 3137 3138 3136 3137 3136 3139 3136 3135 3137 3138 3141 3143 3141 3140 3138 3138 3145 3150 3149 3149 3151 3157 3154 3157 3162
3140 3145 3144 3142 3143 3140 3141 3142 3141 3141 3140 3139 3138 3138 3137 3137 3137 3137 3135 3135 3136 3138 3137 3136 3135 3135 3133 3135 3136 3137 3139 3141 3143 3141 3139 3140 3144 3147 3142 3137 3143 3149 3157 3159 3162
3141 3145 3145 3143 3142 3141 3141 3141 3141 3140 3141 3141 3140 3140 3139 3137 3136 3135 3135 3137 3136 3137 3137 3137 3136 3135 3135 3143 3138 3137 3139 3139 3140 3142 3141 3140 3144 3144 3144 3147 3149 3153 3156 3157 3161
3142 3144 3145 3143 3142 3142 3142 3142 3141 3141 3141 3141 3140 3140 3139 3138 3134 3136 3136 3135 3136 3136 3137 3138 3138 3137 3138 3140 3142 3140 3139 3139 3139 3139 3140 3141 3146 3141 3143 3146 3150 3149 3149 3151 3154
3142 3144 3143 3143 3143 3143 3142 3143 3142 3141 3142 3141 3141 3140 3140 3139 3137 3136 3136 3136 3135 3136 3137 3137 3137 3137 3138 3139 3138 3138 3138 3137 3137 3139 3140 3143 3147 3146 3144 3146 3149 3149 3146 3145 3149
3144 3143 3143 3143 3143 3143 3142 3142 3143 3142 3142 3141 3139 3139 3139 3138 3136 3136 3136 3136 3135 3135 3136 3136 3136 3136 3136 3137 3138 3140 3138 3137 3136 3137 3140 3144 3146 3145 3146 3147 3140 3145 3146 3144 3148
Wind_Speed
9 9 9 9 8 8 8 9 11 12 14 16 16 15 14 12 12 12 13 10 7 10 13 12 11 9 8 10 5 4 7 8 16 22 21 20 18 16 9 20 6 7 18 20 21
9 9 10 10 8 7 8 8 9 11 12 14 17 16 15 13 13 13 14 9 8 11 15 12 9 10 11 7 6 3 7 7 22 21 22 18 16 16 15 15 10 18 14 24 20
9 9 10 10 10 9 8 9 9 10 11 13 15 17 16 13 10 17 13 10 9 13 17 11 8 9 11 10 11 13 15 19 16 25 21 20 15 12 11 13 18 21 21 22 20
8 8 9 10 10 10 9 8 8 8 10 11 13 16 16 14 3 16 13 13 11 16 19 16 12 13 12 9 6 11 5 8 9 19 25 17 15 14 11 16 20 19 17 22 21
8 9 9 10 10 10 9 8 8 8 8 9 11 13 16 16 10 11 16 15 14 16 19 15 13 13 13 12 11 11 4 7 14 24 26 17 14 14 17 19 17 18 21 21 19
9 9 10 10 10 10 9 8 7 7 7 7 9 10 15 16 19 21 12 16 15 13 19 15 11 12 8 11 12 4 5 18 22 27 28 14 17 16 12 16 19 21 20 20 18
9 9 10 11 12 11 9 7 6 6 5 5 6 8 13 15 23 23 13 15 16 14 17 14 11 10 8 8 7 5 7 21 25 19 17 21 18 15 16 20 22 21 20 19 17
9 10 11 11 11 9 7 5 6 5 5 3 4 6 9 20 21 19 17 13 15 16 14 13 14 12 15 5 8 8 8 15 23 17 21 20 18 21 19 23 23 22 20 19 18
10 10 11 11 11 7 5 4 5 5 5 5 1 5 2 12 15 13 13 9 12 12 11 11 15 14 11 14 15 7 6 11 21 23 20 15 22 19 20 22 22 22 20 19 18
9 10 10 11 9 5 4 8 10 11 4 9 7 4 6 4 7 13 13 13 13 11 15 15 13 14 15 18 17 15 4 17 16 28 25 11 18 21 21 21 22 21 20 19 18
8 9 10 9 8 4 3 5 14 11 2 2 5 7 2 7 11 10 12 14 13 12 13 13 15 19 17 15 16 3 4 12 20 29 36 17 20 28 24 21 24 22 23 21 20
7 8 9 8 5 1 4 9 6 4 5 4 7 8 3 9 8 11 12 14 15 15 13 14 20 17 16 13 4 5 1 14 10 11 24 20 22 23 25 29 23 29 21 23 21
8 8 7 5 3 3 3 4 1 2 2 4 4 0 5 8 8 12 15 13 11 14 15 18 12 17 18 16 12 16 15 15 5 10 7 3 8 28 32 27 36 33 28 33 23
8 7 6 3 4 8 10 3 1 6 6 1 2 4 4 6 6 12 15 11 10 13 14 17 15 14 18 17 15 10 6 8 15 9 9 13 2 10 36 34 32 39 38 32 30
8 7 5 4 4 9 5 4 6 2 1 1 2 7 5 6 7 11 13 13 10 10 15 16 15 12 17 12 13 7 5 8 12 12 12 18 7 5 10 37 34 38 36 40 31
9 7 5 3 5 3 3 4 2 5 1 2 1 2 7 4 4 8 13 13 9 10 14 16 9 12 15 11 9 12 16 14 18 0 8 18 14 14 28 19 10 44 39 38 26
9 8 7 5 9 1 3 4 4 7 3 1 5 2 7 3 7 5 12 14 12 11 15 15 12 12 11 15 13 8 18 10 7 7 13 20 20 18 13 21 8 19 45 37 37
13 14 11 8 9 12 3 5 9 6 4 3 2 4 2 3 3 5 10 14 15 14 14 16 16 15 17 19 15 16 22 11 4 5 5 9 10 6 7 11 15 18 37 46 41
18 23 16 11 15 8 6 3 3 8 2 1 2 7 3 5 2 7 11 9 14 13 17 11 18 16 17 19 14 14 20 17 4 8 11 5 13 7 3 12 16 23 27 43 40
12 12 7 9 7 5 7 7 5 4 3 3 5 2 1 5 4 6 5 3 3 4 11 5 11 21 15 14 20 18 10 18 21 7 9 5 7 12 16 14 21 20 27 30 35
10 5 3 1 3 5 5 5 4 3 2 3 3 11 4 1 2 4 4 3 4 5 5 7 7 2 14 16 17 19 17 15 20 19 11 4 2 9 17 15 17 26 26 22 20
7 3 4 1 6 2 4 3 3 5 3 5 5 5 8 3 5 10 3 6 6 3 6 12 9 10 12 13 15 19 21 14 14 15 16 17 10 17 14 17 17 14 24 23 16
4 2 5 3 7 3 1 2 1 5 2 3 4 3 8 5 7 6 4 1 6 2 6 7 9 13 17 8 16 20 18 18 20 18 20 12 11 10 2 6 5 9 18 21 25
4 3 4 2 3 4 1 2 2 3 2 2 4 3 5 7 6 9 8 9 5 7 12 10 10 14 8 9 6 5 17 15 16 22 18 14 16 16 18 19 18 17 19 23 13
3 7 4 5 1 3 0 1 4 2 2 4 4 3 5 9 8 5 6 7 10 11 9 9 13 13 7 7 14 12 10 16 22 19 19 12 13 22 17 16 16 20 25 20 17
2 6 4 4 5 2 2 2 2 2 2 2 4 7 6 8 9 6 6 7 4 7 11 9 14 12 10 9 8 13 10 12 12 23 19 14 6 7 10 15 17 23 28 19 14
5 5 3 5 3 4 1 2 4 3 2 4 7 8 5 7 6 8 7 7 9 9 13 13 16 14 16 8 12 13 13 10 11 8 12 15 5 1 12 15 18 16 22 20 17
Wind_Direction
347 349 349 345 334 318 304 288 268 254 246 240 238 235 230 226 226 231 233 224 216 193 180 173 188 135 187 207 264 285 250 195 159 149 146 149 151 162 135 120 172 175 146 124 131
344 346 347 345 341 327 311 298 282 266 252 244 238 235 233 227 226 229 236 226 213 193 185 177 163 184 195 264 295 258 242 195 154 160 150 161 174 167 162 148 119 121 159 126 144
337 339 340 339 338 338 327 314 300 283 262 249 241 234 231 229 231 233 229 222 208 189 185 154 177 195 211 229 245 297 236 189 173 159 161 159 150 153 149 152 158 158 148 143 150
334 332 333 336 335 331 328 315 303 290 277 256 246 234 227 215 128 246 223 210 205 194 190 165 193 207 224 266 270 275 47 174 82 160 152 156 154 157 156 165 161 162 144 154 147
333 331 333 332 330 328 321 316 306 296 282 267 250 236 222 209 237 229 216 207 204 203 190 180 198 211 232 256 262 250 161 178 132 144 149 157 160 156 141 163 190 166 147 153 154
334 332 330 330 330 326 319 312 308 300 288 270 255 238 218 199 222 229 209 206 201 197 194 190 201 204 259 258 247 277 240 170 160 158 158 151 164 146 144 148 152 154 159 151 158
334 334 335 337 337 335 328 318 314 309 301 280 259 243 227 188 224 242 226 208 197 187 186 200 195 214 262 243 233 213 203 181 170 171 154 153 147 165 163 160 158 158 157 159 159
339 339 340 341 343 340 339 332 326 320 313 279 232 224 192 215 229 232 226 210 194 188 176 212 215 233 222 239 226 235 206 171 190 149 146 168 145 149 157 163 163 162 162 165 164
339 337 341 343 348 349 355 6 356 347 353 358 310 144 311 266 234 222 207 193 198 185 201 213 225 234 227 236 234 223 44 229 199 192 169 170 150 150 163 167 165 168 168 166 170
335 334 335 341 347 352 46 64 38 12 32 56 72 53 320 272 185 200 197 179 190 191 202 213 220 225 230 233 238 230 288 288 217 193 188 182 150 148 165 170 171 171 174 172 174
335 329 331 342 345 1 102 74 10 356 15 259 310 44 264 162 194 170 182 179 184 201 210 226 216 219 217 226 227 243 317 302 185 200 201 195 175 156 168 177 180 177 178 178 178
337 336 340 343 349 39 121 71 333 286 338 353 260 226 160 226 190 185 184 177 190 206 214 213 223 223 228 238 262 204 80 109 157 175 209 220 203 175 173 164 187 186 185 189 175
348 349 343 347 30 82 67 65 278 114 240 251 278 219 262 194 199 200 182 177 205 213 215 220 240 225 231 240 252 226 166 162 116 129 140 151 218 204 192 188 188 198 189 182 210
360 0 3 40 84 80 23 320 42 312 317 151 111 201 209 160 211 202 196 189 217 216 218 230 229 236 226 234 231 144 119 159 149 153 177 160 192 232 204 205 199 201 192 188 186
23 21 18 40 67 78 231 297 235 40 348 98 180 243 189 171 131 201 201 200 223 215 212 229 230 238 223 225 217 139 177 144 144 147 157 189 114 228 184 211 212 208 196 191 199
27 18 13 33 70 43 106 293 250 274 271 200 246 156 174 212 206 174 197 205 215 236 223 225 242 232 225 221 243 131 155 141 156 293 254 217 190 188 189 171 192 206 208 205 209
37 32 41 67 102 295 172 55 277 312 180 209 168 151 205 181 176 219 202 208 213 209 214 222 232 226 213 212 199 184 190 187 201 182 234 193 200 212 195 197 196 193 206 200 194
55 53 53 78 112 140 86 334 285 239 19 343 218 227 127 191 219 178 194 216 227 226 218 209 217 218 216 222 206 212 220 222 226 346 320 312 312 174 205 170 198 198 207 206 200
67 50 41 81 115 109 29 329 308 16 343 3 179 228 196 198 219 235 217 213 215 223 243 309 226 206 206 212 210 208 229 230 181 245 241 131 304 35 161 197 173 187 196 210 209
85 67 6 121 76 23 337 333 359 344 23 338 333 66 256 343 241 182 264 197 228 238 242 252 268 209 197 209 227 240 231 230 236 174 255 343 331 208 201 193 210 202 191 199 210
101 72 18 224 311 311 300 35 30 353 302 359 326 297 186 222 334 329 197 279 72 294 250 247 299 260 199 212 223 228 236 251 253 233 242 160 271 238 261 205 207 223 218 205 215
106 21 262 96 316 252 77 15 47 25 6 341 335 1 352 289 303 282 237 239 324 270 298 237 271 209 228 228 225 225 224 226 249 252 274 278 181 187 214 202 180 189 221 217 235
58 248 211 335 324 243 87 161 323 20 331 357 348 315 335 302 298 299 311 318 289 280 287 295 261 252 230 237 219 221 223 222 237 258 275 272 140 193 6 114 197 170 191 204 214
137 278 272 313 241 11 171 182 263 325 354 343 319 307 314 288 270 312 304 279 273 231 268 265 262 275 18 312 287 286 232 235 247 225 247 247 146 170 160 166 169 178 190 209 214
115 329 243 352 128 292 342 236 278 330 4 330 250 325 328 309 292 321 295 262 246 235 248 235 251 280 341 261 238 268 268 247 241 239 254 255 353 180 171 185 184 177 191 217 239
27 311 187 323 279 246 297 273 284 334 293 345 289 298 300 288 319 302 299 287 311 230 241 227 247 274 279 265 271 247 248 264 238 232 242 259 269 72 194 181 192 181 190 206 235
246 254 222 290 237 280 139 318 292 305 280 296 290 280 281 284 288 275 277 281 267 257 241 237 252 261 267 261 271 276 251 231 248 237 233 231 352 17 280 253 212 206 190 200 220